DW9162 Weather Reports


time (UTC)temp
C
wind
direction
speed
KPH
gust
KPH
rain 1hr
cm
rain 24hr
cm
rain mn
cm
humidity
%
barometer
mb
20260506061510 20 234 0.0 0.0 0.00 0.00 0.00 59 1013.0
20260506044505 20 246 0.0 0.0 0.00 0.00 0.00 58 1012.3
20260506043002 20 246 0.0 0.0 0.00 0.00 0.00 57 1012.6
20260506041501 20 246 0.0 0.0 0.00 0.00 0.00 56 1012.7
20260506040059 20 246 0.0 0.0 0.00 0.00 0.00 55 1012.8
20260506034556 20 246 0.0 0.0 0.00 0.00 0.00 54 1012.8
20260506033050 21 246 0.0 0.0 0.00 0.00 0.00 53 1012.8
20260506031546 21 246 0.0 0.0 0.00 0.00 0.00 52 1012.9
20260506030040 21 246 0.0 0.0 0.00 0.00 0.00 50 1013.0
20260506024538 21 246 0.0 0.0 0.00 0.00 0.00 51 1012.9
20260506023050 21 246 0.0 0.0 0.00 0.00 0.00 51 1013.0
20260506021543 21 246 0.0 0.0 0.00 0.00 0.00 51 1012.8
20260506020026 21 246 0.0 0.0 0.00 0.00 0.00 52 1012.5
20260506014520 21 246 0.0 0.0 0.00 0.00 0.00 51 1012.8
20260506013015 21 246 0.0 0.0 0.00 0.00 0.00 50 1012.7
20260506011510 21 246 0.0 0.0 0.00 0.00 0.00 50 1012.4
20260506010005 21 246 0.0 0.0 0.00 0.00 0.00 49 1012.4
20260506004600 22 246 0.0 0.0 0.00 0.00 0.00 48 1012.4
20260506003057 22 246 0.0 0.0 0.00 0.00 0.00 47 1012.5
20260506001555 22 246 0.0 0.0 0.00 0.00 0.00 46 1012.6
20260506000049 23 246 0.0 0.0 0.00 0.00 0.00 45 1012.6
20260505234543 23 246 0.0 0.0 0.00 0.00 0.00 44 1012.7
20260505233039 23 246 0.0 0.0 0.00 0.00 0.00 45 1012.7
20260505231547 23 246 0.0 0.0 0.00 0.00 0.00 45 1012.6
20260505230029 23 246 0.0 0.0 0.00 0.00 0.00 43 1012.4
20260505224527 23 247 0.0 0.0 0.00 0.00 0.00 43 1012.3
20260505223020 24 247 0.0 0.0 0.00 0.00 0.00 44 1012.5
20260505221516 24 247 0.0 0.0 0.00 0.00 0.00 41 1012.6
20260505220011 25 247 0.0 0.0 0.00 0.00 0.00 43 1012.6
20260505214507 25 248 0.0 0.0 0.00 0.00 0.00 39 1012.2
20260505213007 25 277 0.0 0.0 0.00 0.00 0.00 37 1012.2
20260505211559 25 251 0.0 0.0 0.00 0.00 0.00 39 1012.5
20260505210054 25 271 0.0 0.0 0.00 0.00 0.00 39 1012.7
20260505204550 25 254 0.0 0.0 0.00 0.00 0.00 38 1012.8
20260505203105 25 250 0.0 0.0 0.00 0.00 0.00 41 1013.0
20260505201545 25 243 0.0 0.0 0.00 0.00 0.00 40 1013.2
20260505200045 25 275 0.0 0.0 0.00 0.00 0.00 42 1013.2
20260505194532 25 277 0.0 0.0 0.00 0.00 0.00 41 1013.7
20260505193032 25 230 0.0 0.0 0.00 0.00 0.00 41 1013.9
20260505191523 24 233 0.0 0.0 0.00 0.00 0.00 41 1014.0
20260505190018 24 245 0.0 0.0 0.00 0.00 0.00 42 1014.0
20260505184514 25 240 0.0 0.0 0.00 0.00 0.00 42 1014.1
20260505183017 25 225 0.0 0.0 0.00 0.00 0.00 43 1014.2
20260505181506 25 243 0.0 0.0 0.00 0.00 0.00 44 1014.3
20260505180001 25 239 0.0 0.0 0.00 0.00 0.00 42 1014.6
20260505174604 24 242 0.0 0.0 0.00 0.00 0.00 43 1015.0
20260505173057 24 240 0.0 0.0 0.00 0.00 0.00 42 1015.2
20260505171550 23 246 0.0 0.0 0.00 0.00 0.00 44 1015.5
20260505164542 23 252 0.0 0.0 0.00 0.00 0.00 47 1015.4
20260505163037 22 267 0.0 0.0 0.00 0.00 0.00 51 1015.1
20260505161531 22 217 0.0 0.0 0.00 0.00 0.00 51 1015.2
20260505153017 20 216 0.0 0.0 0.00 0.00 0.00 59 1015.8
20260505151518 20 211 0.0 0.0 0.00 0.00 0.00 60 1015.6
20260505124529 12 213 0.0 0.0 0.00 0.00 0.00 100 1015.5
20260505123025 12 213 0.0 0.0 0.00 0.00 0.00 100 1015.4
20260505121520 11 213 0.0 0.0 0.00 0.00 0.00 100 1015.1
20260505120015 11 213 0.0 0.0 0.00 0.00 0.00 100 1015.1
20260505114514 10 213 0.0 0.0 0.00 0.00 0.00 7 1015.0
20260505113016 10 213 0.0 0.0 0.00 0.00 0.00 15 1014.7
20260505111507 10 213 0.0 0.0 0.00 0.00 0.00 23 1014.5
20260505101501 11 213 0.0 0.0 0.00 0.00 0.00 28 1014.2
20260505094559 11 213 0.0 0.0 0.00 0.00 0.00 26 1014.5
20260505093058 11 213 0.0 0.0 0.00 0.00 0.00 28 1014.2
20260505091557 11 213 0.0 0.0 0.00 0.00 0.00 31 1014.1
20260505084554 11 213 0.0 0.0 0.00 0.00 0.00 37 1014.5
20260505083056 11 213 0.0 0.0 0.00 0.00 0.00 39 1014.5
20260505081549 11 213 0.0 0.0 0.00 0.00 0.00 43 1014.5
20260505080047 11 213 0.0 0.0 0.00 0.00 0.00 41 1014.5
20260505074545 12 213 0.0 0.0 0.00 0.00 0.00 44 1014.4
20260505073044 12 213 0.0 0.0 0.00 0.00 0.00 45 1014.5
20260505071543 12 213 0.0 0.0 0.00 0.00 0.00 47 1014.6